User: anonymous   Login
Location: Unspecified
(43.0000°N, 0.0000°E)
Time: 14:08:32
(UTC+00:00)
Language:

KAITUO 1B - Orbit

View from above orbital plane
View from above orbital plane
View from above satellite
View from above satellite

Ground track
Ground track

The orbit data is extracted from the following two-line orbital elements,

1 40912U 15049P   19229.02732831  .00000552  00000-0  29064-4 0  9991
2 40912  97.4499 235.6128 0014032 330.8738  89.5804 15.19683639216328
Epoch (UTC): 17 August 2019 00:39:21
Eccentricity: 0.0014032
inclination: 97.4499°
perigee height: 497 km
apogee height: 516 km
right ascension of ascending node: 235.6128°
argument of perigee: 330.8738°
revolutions per day: 15.19683639
mean anomaly at epoch: 89.5804°
orbit number at epoch: 21632

The dashed part of the orbit path shows where the satellite is in the earth's shadow,  

DLR